This is the latest recevied weather packets stored in our database for station/object OK2ILA-13. If no packets are shown the sender has not sent any weather packets the latest 10 day(s).
| Time | Temp. | Humidity | Pressure | Rain* | Wind** | Luminosity | Snow |
|---|---|---|---|---|---|---|---|
| 1788554369 | 20.56° C | 54% | 1012.9 hPa | - | - | - | - |
| 1788553769 | 20.56° C | 53% | 1012.9 hPa | - | - | - | - |
| 1788553169 | 20.56° C | 54% | 1013 hPa | - | - | - | - |
| 1788552568 | 20.56° C | 54% | 1013 hPa | - | - | - | - |
| 1788550768 | 21.11° C | 52% | 1013.1 hPa | - | - | - | - |
| 1788550168 | 21.11° C | 52% | 1013.1 hPa | - | - | - | - |
| 1788549568 | 21.67° C | 51% | 1013.3 hPa | - | - | - | - |
| 1788548968 | 21.67° C | 51% | 1013.4 hPa | - | - | - | - |
| 1788548368 | 21.67° C | 51% | 1013.7 hPa | - | - | - | - |
| 1788546568 | 21.67° C | 51% | 1013.3 hPa | - | - | - | - |
| 1788545367 | 21.67° C | 51% | 1013.3 hPa | - | - | - | - |
| 1788543566 | 22.22° C | 49% | 1013 hPa | - | - | - | - |
| 1788542966 | 22.22° C | 48% | 1013 hPa | - | - | - | - |
| 1788542366 | 22.78° C | 47% | 1012.9 hPa | - | - | - | - |
| 1788541766 | 22.78° C | 46% | 1013 hPa | - | - | - | - |
| 1788540566 | 23.33° C | 46% | 1013 hPa | - | - | - | - |
| 1788539966 | 23.33° C | 46% | 1013 hPa | - | - | - | - |
| 1788539366 | 23.33° C | 46% | 1012.9 hPa | - | - | - | - |
| 1788538167 | 23.89° C | 44% | 1013.1 hPa | - | - | - | - |
| 1788537566 | 24.44° C | 43% | 1013.3 hPa | - | - | - | - |
| 1788536966 | 25° C | 43% | 1013.4 hPa | - | - | - | - |
| 1788535766 | 24.44° C | 43% | 1013.6 hPa | - | - | - | - |
| 1788535165 | 24.44° C | 44% | 1013.7 hPa | - | - | - | - |
| 1788534565 | 25° C | 43% | 1013.9 hPa | - | - | - | - |
| 1788533966 | 25° C | 43% | 1014 hPa | - | - | - | - |
* Rain since midnight (hover to see other rain measurements)
** Current wind speed in m/s (hover to see current wind gust speed)